SCP
1 0 0 0 0 1 1 1 0 0 0 0 0 0 0 0 0 0 0 0 0 0 0 0 0 0 0 0 0 0 0 0 0 0 0 0 0 0 0 0 0 0 0
1 1 0 0 0 1 1 1 0 0 0 0 0 0 0 0 0 0 0 0 0 0 0 0 0 0 0 0 0 0 0 0 0 0 0 0 0 0 0 0 0 0 0
1 1 0 0 0 1 1 1 1 1 0 0 0 0 0 0 0 0 1 1 0 0 0 0 0 0 0 0 0 0 0 0 0 0 0 0 0 0 0 0 0 0 0
1 1 1 1 1 1 1 1 1 1 1 0 0 0 0 0 0 1 1 1 1 0 0 0 0 0 0 0 0 0 0 0 0 0 0 0 0 0 0 0 0 0 0
1 1 1 1 1 1 1 1 1 1 1 1 0 0 0 0 0 1 1 1 1 1 1 0 0 0 0 0 0 0 0 0 0 0 0 0 0 0 0 0 0 0 0
0 1 1 1 1 1 1 1 1 1 1 1 1 1 1 0 1 1 1 1 1 1 1 1 1 0 0 0 0 1 1 1 1 0 0 0 0 0 0 0 0 0 0
0 0 1 1 1 1 1 1 1 1 1 1 1 1 1 1 1 1 1 1 1 1 1 1 1 1 1 1 1 1 1 1 1 1 0 0 0 0 0 0 0 0 0
0 0 1 1 1 1 1 1 1 1 1 1 1 1 1 1 1 1 1 1 1 1 1 1 1 1 1 1 1 1 1 1 1 1 0 0 0 0 0 0 0 0 0
0 0 0 1 1 1 1 1 1 2 2 1 1 1 1 1 1 1 1 1 1 1 1 1 1 1 1 1 1 1 1 1 1 1 0 0 0 0 0 0 0 0 0
0 0 0 0 1 1 1 1 2 2 2 1 1 1 1 1 1 1 1 1 1 1 1 1 1 1 1 1 1 1 1 1 1 1 1 0 0 0 0 0 0 0 0
0 0 0 0 1 1 1 1 2 2 2 2 1 1 1 2 1 1 1 1 1 1 1 1 1 1 1 1 1 1 1 1 1 0 1 1 0 0 0 0 0 0 0
0 0 1 1 1 1 1 1 1 2 2 2 2 2 2 2 2 1 1 1 1 1 1 1 1 1 1 1 1 1 1 1 0 0 0 0 0 0 0 0 0 0 0
0 1 1 1 1 1 1 1 1 1 1 1 2 2 2 2 2 2 2 2 2 1 1 1 1 1 1 1 1 1 1 1 1 1 0 0 0 0 0 0 0 0 0
1 1 1 1 1 1 1 1 1 1 1 1 2 2 2 2 2 2 2 2 2 2 1 1 1 1 1 1 1 1 1 1 1 1 1 0 0 0 0 0 0 0 0
1 1 1 1 1 1 1 1 1 1 1 2 2 2 2 2 2 2 2 2 2 2 1 1 1 1 1 1 1 1 1 1 1 1 1 0 0 0 0 0 0 0 0
1 1 1 1 2 2 2 1 1 1 2 2 2 2 2 2 2 2 2 2 2 2 2 1 1 1 1 1 0 0 1 1 1 1 1 0 0 0 0 0 0 0 0
1 1 1 1 2 2 2 2 2 2 2 2 2 2 2 2 2 2 2 2 2 2 2 1 1 1 1 0 0 0 0 1 1 1 1 0 0 0 0 0 0 0 0
1 1 1 1 1 2 2 2 2 2 2 2 2 2 2 2 2 2 2 2 2 2 2 1 1 1 1 0 0 0 0 0 1 1 1 1 1 0 0 1 0 0 0
1 1 1 1 1 1 2 2 2 2 2 2 2 2 2 2 2 2 2 2 2 2 2 2 1 1 1 0 0 0 0 0 1 1 1 1 0 0 0 0 1 1 1
0 1 1 1 1 1 2 2 2 2 2 2 2 2 2 2 2 2 2 2 2 2 2 2 2 1 1 0 0 0 0 0 1 1 1 0 0 0 0 0 1 1 1
0 0 1 1 1 1 2 2 2 2 2 2 2 2 2 1 1 2 2 2 2 2 2 2 2 2 1 1 0 0 0 0 0 1 0 0 0 0 0 0 0 1 1
0 0 1 1 1 1 2 2 2 2 2 3 3 2 1 1 1 2 2 2 2 2 2 2 2 2 1 1 0 0 0 0 0 0 0 0 0 0 0 0 0 0 0
0 1 1 1 1 1 2 2 2 2 2 2 2 2 1 1 1 2 2 2 2 1 1 1 2 2 1 1 1 0 0 0 0 0 0 0 0 0 0 0 0 0 0
0 1 1 1 2 2 2 2 2 2 2 2 2 2 1 1 1 2 2 2 1 1 1 1 1 1 1 1 1 0 0 0 0 0 0 0 0 0 0 0 0 0 0
1 1 1 1 1 1 2 2 2 2 2 2 2 2 1 1 1 1 1 1 1 1 1 1 1 1 1 1 0 0 0 0 0 0 0 0 0 0 0 0 0 0 0
1 1 1 1 1 1 2 2 2 2 2 2 2 2 1 1 1 1 1 1 1 1 1 1 1 1 1 0 0 0 0 0 0 0 0 0 0 0 0 0 0 0 0
Wind_Speed
9 9 7 8 7 6 5 4 3 2 1 1 0 0 1 1 1 2 2 3 2 2 2 1 2 1 1 1 1 1 1 1 1 1 1 1 1 2 2 2 2 3 4
10 9 8 7 7 6 5 4 3 3 2 1 1 1 1 1 2 2 3 3 2 2 2 1 1 1 1 1 1 1 0 1 1 1 1 1 0 0 2 2 2 2 3
11 10 9 8 8 7 6 5 4 3 2 1 1 0 1 0 1 2 2 2 2 2 1 2 1 0 1 1 1 1 0 1 0 1 1 1 1 0 0 2 2 2 2
11 10 9 8 8 8 7 5 5 3 2 2 1 1 1 1 1 2 2 2 2 2 2 2 1 0 1 1 1 1 1 1 1 1 1 0 2 1 1 1 2 2 2
10 10 10 9 8 8 8 7 6 4 3 2 2 1 1 1 1 2 2 2 2 2 2 2 1 1 0 1 0 0 1 1 1 1 1 0 1 1 2 2 2 1 2
9 9 9 8 8 8 7 7 7 5 4 3 3 2 2 1 0 1 2 2 2 2 2 2 2 1 1 1 1 1 1 1 1 1 1 1 1 1 1 1 2 2 1
8 9 9 9 7 7 7 7 7 5 5 4 3 3 2 2 2 1 1 2 2 2 2 2 1 1 1 1 1 1 1 1 1 1 2 1 1 0 1 1 1 1 1
7 8 8 8 8 7 6 6 7 5 5 4 3 3 3 2 2 3 2 2 2 2 3 2 2 1 1 1 1 1 2 2 1 1 1 1 1 1 0 1 1 1 1
7 8 9 9 9 8 7 6 6 5 5 4 4 3 4 3 2 2 2 1 1 2 3 3 2 1 0 0 0 1 1 0 0 1 1 1 1 1 1 0 1 1 1
5 7 7 8 8 8 8 7 7 6 4 4 4 4 4 3 3 2 2 2 2 2 2 2 2 1 1 1 1 1 1 1 1 0 0 1 1 1 1 1 1 1 1
5 5 5 6 7 7 7 7 7 6 5 4 3 2 3 3 3 2 2 2 2 3 3 2 2 2 1 1 1 1 1 1 1 1 1 0 1 1 1 1 1 1 0
5 5 5 5 4 5 5 5 5 6 5 4 4 3 2 3 3 3 3 3 3 3 3 3 3 2 2 1 1 1 1 1 1 1 0 0 1 0 1 2 1 1 0
5 5 5 4 3 3 3 3 4 4 5 5 4 4 3 3 3 3 3 3 3 3 3 3 2 2 2 1 1 1 1 1 1 1 1 1 0 1 1 1 1 2 1
5 4 4 4 2 2 3 3 3 3 4 4 4 4 3 3 3 3 3 3 3 3 3 3 2 2 2 2 2 2 2 1 1 1 1 1 1 1 2 2 2 2 1
4 3 3 3 2 2 3 3 2 2 2 3 3 3 3 3 3 3 3 3 3 3 3 3 2 2 2 2 2 2 3 2 2 1 1 1 1 1 0 1 1 1 2
3 2 2 2 2 1 2 3 3 2 2 3 3 3 3 3 3 3 3 3 3 3 3 3 3 3 2 2 1 1 1 1 2 2 1 2 2 3 3 2 0 1 2
3 3 1 1 1 1 1 3 3 3 3 2 2 3 3 3 3 3 3 3 3 3 3 3 3 3 2 2 2 1 2 2 2 2 2 3 2 3 3 3 3 3 3
3 3 2 1 0 1 1 2 2 2 2 2 2 2 2 3 3 3 3 3 3 3 3 3 3 3 3 3 3 2 3 3 3 3 3 3 1 2 1 3 3 3 3
4 3 3 3 2 2 1 2 2 2 2 2 2 2 2 2 3 3 3 2 2 3 3 3 4 3 2 3 3 3 3 3 4 4 3 3 2 2 2 2 3 3 3
4 4 4 3 2 2 1 2 3 3 3 3 3 3 3 3 3 3 3 3 3 3 3 4 4 4 3 4 5 4 3 3 3 3 3 3 3 3 3 3 4 4 4
3 4 4 3 3 2 2 0 1 1 2 3 3 3 3 3 3 3 3 3 4 4 4 4 4 4 4 6 7 6 3 3 3 3 2 2 3 3 4 4 5 5 4
3 4 3 3 3 2 1 1 1 1 1 1 2 3 3 3 3 3 4 4 5 5 5 5 5 4 4 6 7 9 7 4 3 3 2 1 4 5 6 5 6 5 4
3 3 3 2 2 2 1 2 1 1 1 1 2 3 3 3 3 4 5 4 4 4 4 4 5 4 3 4 8 9 8 7 4 2 2 2 5 4 5 6 6 5 4
3 3 3 3 2 3 2 2 2 1 1 2 3 3 3 3 3 3 4 4 4 4 4 4 4 3 3 3 3 4 4 5 4 4 3 3 5 5 5 4 4 5 5
4 3 3 3 3 2 2 2 2 2 2 2 3 4 4 4 3 3 3 4 3 3 3 3 2 2 2 3 4 4 4 3 3 2 2 2 3 3 4 4 4 4 4
3 3 3 4 4 3 2 2 2 2 2 3 3 3 3 3 3 4 3 3 3 4 5 4 3 2 3 4 5 5 5 5 4 3 3 4 4 5 5 5 4 4 4
Wind_Direction
149 145 146 142 138 132 129 122 121 108 88 78 126 160 137 157 127 122 123 118 114 110 109 82 110 113 97 99 94 89 129 142 152 106 103 123 155 158 148 155 158 152 157
154 152 156 154 145 138 137 139 137 127 123 120 236 186 137 162 125 108 117 114 122 122 132 124 128 126 122 104 105 113 138 214 148 143 165 140 106 175 161 161 158 153 149
161 161 164 163 154 152 153 156 146 144 144 161 194 156 146 90 89 113 118 122 128 126 101 115 102 49 109 123 144 151 204 250 216 178 183 165 151 167 150 162 151 139 137
161 163 166 168 165 160 158 149 146 149 155 184 209 179 144 137 134 129 134 144 148 142 133 134 128 95 67 121 204 145 274 256 249 258 265 124 128 150 151 167 147 154 153
158 163 167 169 170 165 162 155 149 156 165 189 194 198 157 169 119 116 139 147 150 156 154 151 149 138 166 147 103 48 327 297 303 300 304 350 189 194 178 173 162 167 168
157 160 161 161 166 164 159 157 154 163 173 187 191 188 188 184 158 139 153 158 146 146 141 153 157 174 180 177 198 227 254 269 312 310 303 280 224 172 166 165 171 171 178
159 160 160 162 161 163 164 155 152 167 175 183 192 187 197 194 189 196 192 176 152 142 152 156 169 186 182 199 210 206 227 268 279 291 294 303 319 86 172 152 169 176 177
151 156 156 156 161 165 160 151 151 164 175 182 189 188 196 207 193 199 206 190 157 151 147 156 171 179 201 219 204 207 205 223 246 272 306 320 340 339 97 173 168 188 172
148 153 158 161 163 165 161 157 151 161 173 183 184 191 196 207 206 182 203 181 136 146 147 158 162 164 153 270 189 162 237 197 247 256 297 308 315 331 307 330 156 193 201
141 147 155 160 162 165 163 160 154 162 174 182 192 192 190 194 201 189 191 173 140 122 136 140 152 147 144 182 161 171 183 167 210 207 42 316 324 330 341 323 290 273 206
126 119 130 146 154 158 160 158 153 161 172 180 186 189 170 181 190 189 183 167 144 146 152 153 167 159 169 177 177 182 198 192 205 221 155 180 333 332 313 305 303 324 347
110 115 115 123 141 158 159 158 160 167 171 174 170 167 170 172 183 181 176 157 151 163 162 169 178 185 174 187 197 211 216 203 184 216 185 248 245 307 314 305 314 298 282
114 112 114 116 130 145 148 153 160 176 179 173 172 165 174 181 188 185 168 157 162 170 171 171 179 191 179 177 219 216 205 224 187 210 204 207 206 243 284 289 290 280 260
101 107 112 114 120 134 147 164 175 179 179 164 171 167 176 181 184 178 168 163 169 173 174 183 191 201 198 195 222 234 202 210 208 218 208 199 206 224 259 253 268 271 274
94 93 104 108 122 130 157 167 170 179 170 157 169 165 168 167 168 171 168 167 175 175 172 186 194 209 211 219 221 230 206 196 208 217 211 182 136 110 263 264 266 265 259
54 64 75 107 139 164 169 172 179 179 165 168 176 165 168 170 180 180 181 179 178 171 176 194 204 215 218 143 139 221 240 197 204 217 210 198 197 194 194 197 194 262 243
38 31 44 114 143 176 161 168 174 174 171 171 175 167 173 179 191 197 184 184 185 179 189 200 203 204 183 158 163 195 225 215 211 215 230 245 223 198 205 211 217 231 237
38 23 2 360 314 311 169 155 158 167 169 168 176 173 177 186 196 201 194 193 188 191 201 213 221 214 204 184 181 212 230 233 225 221 228 236 239 244 230 245 233 227 243
31 20 354 352 9 331 299 144 172 173 186 198 188 180 185 193 202 207 203 204 201 208 210 213 223 227 216 197 194 205 239 238 237 232 233 225 211 222 224 246 257 248 249
20 6 359 6 8 350 346 170 184 188 204 209 197 186 192 198 208 213 206 210 209 218 226 222 217 217 211 202 206 203 244 244 245 238 224 220 214 216 228 231 242 247 245
12 4 4 7 4 350 3 336 205 218 229 206 193 190 199 213 214 206 204 211 219 224 230 229 223 214 208 198 207 204 234 255 258 250 235 204 183 211 243 246 246 241 241
359 356 3 358 358 357 353 299 286 306 315 241 208 202 204 230 230 216 222 221 223 226 227 228 231 220 204 198 206 207 220 252 268 270 269 210 201 225 240 245 246 245 245
354 348 343 345 341 344 327 300 308 307 284 248 231 235 222 221 233 226 226 224 224 232 236 230 232 226 206 195 199 207 223 236 249 284 297 251 232 242 248 245 243 243 245
337 329 323 325 330 324 316 301 296 277 246 245 227 232 236 236 233 229 229 226 227 228 235 236 241 242 216 192 184 200 218 234 244 259 260 237 236 246 250 250 238 231 240
332 331 329 323 313 310 320 304 289 277 268 259 243 237 235 232 226 226 235 240 240 234 234 248 253 258 253 239 204 204 213 218 226 224 240 243 238 235 230 230 228 226 227
319 315 312 311 310 310 312 313 301 296 285 282 264 252 252 246 243 237 242 252 249 236 231 231 235 241 228 208 202 206 219 218 200 202 237 243 242 239 237 233 227 222 227